Vertical_Velocity
3 2 0 -1 -1 -2 -3 -2 -1 -1 -2 -2 0 1 2 5 5 -6 17 5 4 1 4 -1 3 -4 -1 -19 -11 29 -3 -16 -6 3 -9 -1 -16 4 -8 3 2 5 -10 -7 7 -13 3 8 41 18 -23 3 -2 -2
2 -1 -2 -3 -3 -3 -3 -3 -2 0 2 2 3 3 5 5 7 6 -1 3 7 3 0 -11 2 3 -3 3 7 -4 1 10 -12 4 -11 6 -9 2 13 -10 14 -21 11 10 -20 -1 -4 -9 8 -1 -1 3 -0 0
-2 -2 -1 -3 -2 -0 -4 -4 -2 -0 1 3 3 3 4 4 4 4 -6 5 -2 -5 4 10 2 -9 -9 -1 7 -15 -4 8 3 -7 3 -4 -23 14 -11 6 6 -5 -2 -3 -23 2 3 16 -6 -3 -5 -2 -1 -1
-1 -1 -5 0 -1 -2 -3 -2 -1 1 2 3 3 2 4 5 6 3 -13 -2 8 11 -14 -1 3 -13 21 -6 3 -5 5 0 -11 -1 0 1 -6 -3 4 16 -4 10 5 1 -8 13 -0 -13 -1 32 -3 -1 -0 -5
-1 2 3 2 -2 -0 2 -0 -4 -4 1 1 2 9 3 0 12 11 -10 13 5 6 1 5 3 -1 -0 -1 1 5 2 -5 8 -1 -12 -6 -9 1 4 0 1 -6 -0 10 9 -12 -8 4 -4 10 8 -3 5 2
-1 -1 -1 -0 1 1 -2 -7 -1 -1 -2 1 8 -4 -1 0 -2 9 -7 -1 -4 1 16 9 30 15 -9 -3 0 2 3 0 -5 -3 4 -4 4 3 -2 -3 -3 1 6 -4 1 -1 -7 -3 1 7 -1 3 4 -5
-2 1 -3 -3 -3 -2 -2 1 -1 3 4 1 -3 -0 -5 -5 -0 -3 5 19 8 -0 1 7 -2 -4 4 -2 -1 -3 7 20 1 8 32 9 2 3 -3 -9 6 11 6 -2 1 5 -3 -7 3 -3 -0 0 -3 -4
-2 -0 -4 -1 -4 -2 -1 1 6 -3 -1 -1 -2 -0 3 6 10 7 6 18 50 19 1 -4 -6 3 -3 2 2 15 6 15 2 -4 6 5 -0 -1 -10 -4 2 1 0 -1 4 2 -2 -7 -1 9 -0 -4 -1 -2
-1 1 -2 -4 -3 -5 -3 -2 -1 2 -3 -1 -3 7 12 13 14 8 17 8 -7 -1 -3 3 7 6 4 5 -1 -1 -2 -11 2 -10 10 22 -0 -20 2 5 5 3 3 6 6 1 6 2 5 9 -3 -6 -8 -2
-1 1 -1 -2 -3 -2 -0 -3 9 8 -2 -2 4 -1 1 12 4 5 3 0 4 4 3 2 3 2 3 5 5 1 -2 0 3 3 1 -3 8 9 4 2 5 -1 -3 6 6 -1 4 -3 -1 -5 -7 -4 -3 -5
-1 0 0 -1 1 1 1 -1 -1 3 2 2 1 2 -6 3 3 3 -0 1 5 2 3 4 2 0 -1 0 3 2 -1 -3 2 4 7 13 29 3 -1 2 12 16 0 2 6 0 0 3 -0 -2 -0 -0 -2 -1
0 0 -1 2 3 2 -0 1 2 1 -0 1 8 8 1 -2 -2 -4 -3 -0 -1 -1 -2 -1 -3 -5 1 2 4 -1 -2 0 -7 -4 -4 -6 -6 6 3 2 4 2 7 9 6 1 2 8 7 -2 -2 -0 1 2
1 0 1 1 2 2 -1 -4 -1 2 2 3 -3 0 -2 1 -3 -2 -4 -5 -5 -6 0 -2 -1 0 2 1 0 -0 -3 -5 5 -7 -7 0 5 3 -1 -0 5 6 6 6 6 1 -3 -1 -1 1 1 -0 -1 -1
-1 -1 0 1 1 1 0 -0 0 1 -1 -0 -1 -0 1 -0 -1 -0 -1 0 -4 -3 5 13 9 -2 -1 23 -1 -4 -6 -1 -8 -10 -7 11 4 2 4 4 1 0 1 4 -2 -4 -3 -4 -3 1 3 1 1 2
-1 -2 -1 -1 -2 -0 1 0 2 2 1 -1 -0 1 2 1 0 0 0 -1 -1 3 3 3 5 7 -2 7 -3 1 -1 -2 -0 4 1 1 -2 -0 -1 -4 -4 4 4 4 5 6 2 2 3 3 2 2 2 2
-2 -3 -3 -0 -1 0 0 -1 -1 2 -1 -5 -2 -2 2 1 1 1 -3 -2 1 5 5 4 -1 -1 -1 -1 -4 -4 -2 -2 -6 -9 -7 -3 -4 1 3 5 9 4 5 11 9 6 6 9 7 5 4 4 2 1
-2 -0 -2 -2 -2 -2 -1 -1 1 2 0 -8 -5 -1 3 1 1 5 -1 4 6 2 2 2 2 -10 -1 -7 -1 1 3 13 17 8 -1 2 3 15 10 10 10 6 3 1 1 1 1 1 1 2 2 2 2 1
1 2 7 6 4 4 4 2 -2 2 -2 -9 -3 1 0 -0 -0 4 3 4 4 10 31 34 28 18 10 1 0 5 8 28 4 4 9 13 11 8 3 3 1 0 0 2 2 1 2 1 1 1 1 1 1 0
1 -1 -2 2 4 3 5 3 1 -1 -3 -7 -1 -3 -3 -1 2 3 2 2 5 2 2 2 1 -1 -0 -2 -0 1 1 1 1 1 0 -0 -0 -0 -0 -1 -1 -1 -1 -1 1 2 1 1 0 1 1 1 1 1
3 5 6 8 4 -7 3 -2 -2 0 -4 -3 -4 -4 -1 -3 -3 -2 1 1 -0 1 -1 -2 -2 -1 -1 -1 -0 -1 -0 -1 -1 -0 -0 0 1 1 0 0 0 0 -0 -1 -2 -2 -2 -2 -2 -1 -1 -1 -2 -3
0 2 3 1 7 13 -5 -4 2 -6 -3 1 -5 -1 -0 -1 -5 0 1 1 2 0 -1 -2 -2 0 1 2 1 1 1 1 1 1 0 -0 0 -0 -1 -2 -2 -3 -3 -2 -2 -3 -3 -2 -1 -2 -3 -3 -2 -2
1 2 1 -3 10 11 -1 3 4 1 1 -7 -3 -0 1 5 3 0 3 0 -1 2 1 -1 -1 0 1 -0 -1 -0 -0 -1 -1 -0 0 -0 -1 -1 -1 0 0 0 -1 -1 -1 -2 -3 -2 -3 -5 -4 -2 -2 -2
2 0 -3 5 5 -4 -4 3 7 7 3 -2 1 4 3 4 5 1 1 7 7 0 -3 -1 -0 0 0 1 1 1 1 2 1 1 2 2 3 2 1 1 0 0 -0 -0 0 -0 -2 -3 1 1 1 1 0 1
6 -1 -0 2 3 -2 -2 -2 0 -1 -3 -1 -1 -0 1 1 1 3 -0 -3 -3 -3 -1 -0 0 -0 0 0 -0 0 1 1 0 -1 -2 -3 -2 -2 -1 -1 -2 -3 -3 -4 -4 -1 0 -2 -1 -0 0 1 1 1
4 1 2 3 1 -1 -3 -3 -4 -2 -1 -3 -1 -0 -2 -2 -2 -3 -2 -1 -1 -1 -1 -1 -1 -1 -1 -1 -1 -1 -2 -2 -2 -3 -4 -4 -3 -4 -4 -3 -3 -2 -2 -2 -1 -1 -0 -1 -1 -0 -1 -1 -1 -0
3 -1 1 -1 0 0 3 2 1 1 1 1 1 1 0 -0 -0 -1 -1 -1 -1 -1 -1 0 1 1 -1 -1 -2 -1 -1 -1 -1 -2 -1 -1 -2 -6 -6 -4 -3 -1 -1 -2 -2 -2 -2 -1 -2 -3 -1 -2 -2 -2
-1 -0 -1 -1 -1 -1 -1 -2 -1 -1 -0 -0 0 1 1 1 -0 -0 -0 -1 -1 -1 -1 -1 -1 -1 -0 -1 -3 -6 -6 -7 -6 -5 -4 -1 -0 0 2 0 -0 -1 -1 -1 -1 -1 -1 -2 -1 -1 -2 -1 -1 -1
-1 -0 -0 0 -0 -1 -1 -1 -1 -1 -1 -1 -1 -0 -1 -0 -0 -0 -0 -1 -1 -1 -1 -2 -4 -3 -3 -4 -4 -4 -5 -4 -2 -3 -4 -1 -2 -1 -1 0 -0 -1 -0 -1 -1 -0 -0 -0 -1 -0 0 1 2 1
-0 0 0 -1 -1 -1 -1 -1 -1 -1 -1 -1 -1 -1 -2 -2 -2 -1 -1 -1 -1 -1 -1 -1 -2 -2 -4 -5 -6 -5 -3 -0 -1 -1 -2 -1 -0 1 1 1 1 1 2 1 0 0 -0 0 0 -0 -1 -1 -1 -1
0 -0 -0 -0 -0 -1 -2 -1 -1 -1 -1 -1 -1 -2 -2 -2 -2 -1 -2 -2 -2 -2 -1 -2 -3 -3 -4 -6 -3 -4 -3 -2 0 1 1 1 1 1 1 2 2 2 1 0 -0 -0 0 -0 -1 -2 -2 -2 -2 -2
0 0 -1 -1 -2 -2 -1 -1 -1 -1 -2 -2 -1 -1 -1 -1 -1 -3 -3 -3 -3 -3 -3 -4 -5 -5 -8 -9 -6 -1 -2 -3 -2 -2 -2 -2 -1 -0 0 1 1 1 1 0 -0 -0 -0 -1 -1 -1 -1 -1 -1 -1
-1 -0 0 -1 -1 -1 -0 -1 -1 -1 -1 -1 -3 -2 -2 -2 -2 -1 -2 -3 -2 -2 -3 -4 -5 -3 -2 -2 -2 -3 1 -1 -2 -3 -3 -2 -1 -1 0 0 1 0 0 -0 -0 -1 -1 -1 -1 -1 -2 -2 -2 -2
0 0 0 -1 -0 -0 -1 0 1 -2 -1 -2 -2 -1 -0 -2 -3 -1 -1 -2 -3 -4 -5 -5 -5 -4 -3 -1 1 0 -1 -1 -1 -1 -1 -0 -0 -0 -0 0 -0 -1 -1 -0 -1 -1 -1 -1 -2 -2 -1 0 0 -0
Height
5358 5357 5357 5357 5356 5356 5355 5355 5355 5356 5358 5361 5365 5370 5376 5382 5388 5393 5405 5412 5422 5430 5443 5452 5464 5472 5480 5487 5497 5510 5509 5513 5519 5523 5529 5538 5544 5550 5554 5560 5562 5565 5567 5571 5572 5577 5583 5590 5593 5597 5600 5607 5609 5615
5347 5345 5343 5342 5340 5338 5337 5337 5337 5338 5340 5343 5348 5354 5360 5366 5373 5380 5387 5402 5411 5418 5432 5441 5452 5462 5469 5478 5485 5490 5500 5505 5510 5514 5519 5528 5534 5540 5547 5551 5556 5560 5566 5565 5567 5573 5576 5581 5586 5588 5592 5598 5601 5606
5335 5333 5332 5330 5327 5324 5322 5320 5318 5318 5321 5325 5330 5337 5344 5353 5360 5367 5378 5391 5400 5412 5423 5433 5445 5455 5461 5468 5477 5482 5491 5496 5498 5505 5513 5519 5524 5532 5539 5546 5550 5552 5555 5558 5562 5567 5570 5575 5577 5582 5584 5589 5594 5598
5328 5325 5322 5319 5317 5314 5311 5309 5306 5305 5305 5307 5313 5320 5329 5339 5349 5358 5369 5385 5394 5404 5415 5430 5435 5446 5456 5461 5467 5475 5483 5487 5492 5498 5504 5509 5517 5526 5534 5539 5541 5546 5548 5553 5555 5561 5561 5566 5568 5572 5577 5580 5584 5589
5319 5315 5313 5312 5311 5308 5304 5300 5297 5292 5290 5293 5297 5307 5318 5330 5344 5354 5369 5381 5390 5401 5413 5424 5429 5438 5450 5456 5462 5468 5475 5482 5487 5491 5497 5506 5512 5518 5526 5530 5533 5535 5540 5544 5546 5549 5554 5560 5561 5566 5571 5573 5577 5580
5315 5312 5310 5310 5308 5304 5300 5296 5294 5293 5291 5295 5298 5302 5314 5327 5338 5351 5365 5376 5389 5400 5410 5414 5425 5436 5444 5451 5457 5464 5472 5476 5480 5483 5490 5500 5506 5512 5518 5523 5525 5527 5531 5536 5541 5549 5549 5552 5556 5558 5562 5564 5568 5570
5317 5314 5313 5312 5309 5305 5302 5300 5300 5301 5302 5305 5310 5316 5324 5335 5347 5357 5372 5386 5392 5400 5411 5417 5423 5431 5438 5446 5452 5459 5462 5465 5474 5480 5487 5495 5501 5503 5509 5512 5516 5521 5524 5529 5535 5541 5542 5544 5548 5550 5554 5555 5556 5558
5323 5320 5318 5316 5314 5312 5310 5310 5311 5312 5315 5318 5323 5329 5337 5347 5357 5366 5378 5386 5394 5403 5412 5419 5424 5430 5437 5443 5449 5455 5457 5463 5470 5476 5482 5488 5494 5497 5499 5505 5509 5515 5520 5523 5527 5532 5535 5538 5539 5542 5545 5545 5548 5550
5332 5329 5327 5324 5323 5321 5321 5323 5325 5326 5329 5333 5338 5344 5351 5360 5370 5377 5386 5394 5401 5409 5414 5420 5425 5430 5435 5440 5447 5452 5455 5462 5467 5472 5478 5484 5487 5491 5494 5500 5507 5511 5515 5519 5521 5524 5527 5531 5532 5535 5537 5538 5539 5541
5342 5340 5337 5335 5334 5333 5333 5335 5337 5339 5343 5347 5353 5357 5362 5369 5377 5384 5391 5397 5404 5409 5415 5420 5425 5430 5435 5439 5444 5449 5452 5457 5462 5468 5473 5477 5483 5487 5492 5496 5500 5504 5508 5511 5514 5517 5520 5524 5526 5528 5528 5528 5529 5530
5349 5349 5349 5348 5346 5347 5346 5348 5350 5352 5355 5359 5364 5369 5373 5378 5384 5390 5395 5400 5406 5411 5416 5421 5425 5429 5434 5437 5442 5446 5451 5454 5460 5466 5468 5471 5479 5483 5488 5491 5494 5498 5501 5504 5506 5510 5515 5517 5518 5519 5520 5519 5520 5520
5356 5356 5356 5356 5357 5358 5359 5360 5361 5363 5366 5369 5373 5377 5381 5387 5392 5397 5401 5406 5410 5415 5418 5423 5427 5430 5433 5435 5439 5444 5448 5454 5459 5464 5467 5470 5474 5479 5483 5486 5489 5492 5494 5496 5499 5503 5505 5507 5508 5509 5510 5510 5510 5511
5359 5361 5362 5363 5364 5365 5367 5369 5370 5372 5376 5379 5383 5387 5390 5395 5398 5402 5405 5409 5412 5416 5420 5423 5427 5429 5432 5437 5440 5443 5448 5452 5457 5461 5465 5468 5472 5477 5481 5484 5486 5489 5491 5493 5495 5498 5499 5500 5501 5502 5503 5503 5503 5503
5363 5364 5365 5367 5369 5370 5372 5374 5376 5378 5382 5385 5389 5393 5397 5399 5402 5404 5406 5410 5414 5417 5421 5425 5428 5430 5433 5437 5440 5443 5447 5450 5456 5461 5465 5466 5472 5475 5479 5482 5483 5484 5485 5487 5489 5491 5491 5493 5494 5493 5493 5492 5491 5490
5367 5368 5369 5371 5373 5374 5376 5378 5380 5383 5386 5390 5394 5397 5399 5401 5402 5404 5409 5413 5417 5420 5422 5425 5427 5430 5434 5438 5439 5444 5447 5449 5455 5462 5465 5467 5471 5472 5474 5476 5477 5478 5478 5479 5481 5482 5483 5483 5483 5482 5482 5482 5481 5479
5371 5373 5374 5375 5376 5377 5378 5379 5382 5385 5387 5392 5397 5400 5402 5404 5405 5409 5414 5418 5421 5423 5425 5428 5429 5432 5435 5438 5443 5446 5451 5454 5458 5460 5462 5465 5467 5468 5469 5470 5470 5471 5472 5473 5474 5474 5474 5474 5474 5473 5472 5471 5470 5468
5377 5377 5378 5379 5380 5380 5381 5382 5383 5384 5388 5393 5398 5403 5406 5408 5411 5415 5420 5422 5424 5427 5428 5430 5432 5434 5439 5442 5445 5449 5451 5453 5454 5454 5456 5460 5462 5464 5466 5466 5466 5467 5467 5467 5466 5466 5466 5465 5464 5463 5461 5459 5457 5455
5381 5381 5381 5381 5380 5379 5380 5381 5384 5385 5388 5395 5400 5406 5410 5413 5416 5420 5423 5425 5428 5429 5430 5434 5436 5437 5441 5446 5450 5451 5452 5456 5456 5456 5458 5459 5461 5461 5461 5462 5462 5462 5461 5460 5460 5459 5458 5456 5454 5452 5450 5447 5445 5442
5381 5380 5380 5381 5380 5378 5377 5379 5383 5385 5390 5398 5405 5412 5416 5419 5423 5427 5429 5431 5433 5434 5438 5440 5442 5444 5447 5449 5451 5453 5454 5454 5455 5455 5456 5457 5457 5458 5458 5457 5456 5455 5454 5453 5451 5449 5448 5445 5443 5441 5438 5435 5432 5429
5388 5386 5385 5385 5385 5385 5384 5384 5387 5392 5396 5405 5412 5418 5423 5426 5430 5434 5436 5437 5439 5441 5442 5444 5445 5447 5448 5450 5451 5452 5453 5453 5454 5454 5455 5455 5454 5453 5452 5451 5450 5448 5446 5444 5441 5439 5436 5434 5431 5428 5424 5420 5416 5411
5396 5395 5395 5394 5394 5395 5394 5394 5397 5401 5406 5414 5419 5425 5429 5432 5436 5438 5440 5442 5444 5443 5445 5446 5447 5448 5449 5450 5450 5451 5451 5451 5451 5450 5450 5449 5448 5446 5444 5442 5439 5436 5433 5430 5427 5423 5420 5417 5413 5409 5405 5401 5397 5393
5406 5406 5406 5405 5408 5408 5406 5409 5412 5415 5420 5424 5429 5433 5436 5438 5440 5441 5443 5444 5444 5445 5446 5446 5447 5449 5449 5449 5448 5448 5447 5445 5444 5442 5440 5438 5435 5433 5430 5427 5423 5419 5415 5411 5407 5403 5399 5395 5392 5387 5382 5378 5375 5371
5415 5415 5416 5417 5420 5419 5421 5421 5424 5428 5430 5432 5435 5438 5439 5440 5440 5440 5442 5445 5445 5445 5446 5447 5447 5446 5445 5444 5442 5440 5439 5436 5434 5431 5429 5426 5422 5418 5414 5409 5405 5401 5396 5392 5387 5382 5377 5373 5370 5366 5362 5358 5354 5351
5422 5422 5424 5426 5428 5428 5430 5431 5434 5436 5437 5439 5440 5441 5443 5444 5444 5445 5446 5446 5446 5446 5446 5445 5444 5442 5441 5438 5436 5434 5431 5427 5424 5421 5417 5413 5409 5404 5400 5394 5389 5383 5378 5373 5368 5365 5359 5354 5352 5349 5346 5344 5341 5337
5429 5429 5430 5431 5432 5434 5435 5437 5439 5441 5442 5443 5445 5446 5446 5447 5447 5447 5446 5446 5445 5444 5442 5441 5439 5436 5434 5431 5428 5425 5422 5418 5413 5408 5402 5396 5390 5385 5380 5376 5371 5366 5361 5358 5355 5351 5348 5344 5342 5339 5336 5334 5332 5329
5431 5432 5434 5434 5436 5437 5439 5440 5442 5443 5445 5446 5446 5447 5447 5447 5446 5445 5445 5443 5441 5439 5437 5434 5431 5429 5425 5422 5418 5414 5408 5403 5397 5392 5386 5380 5374 5367 5363 5360 5357 5355 5351 5348 5346 5343 5340 5338 5335 5332 5330 5328 5325 5323
5433 5434 5436 5437 5439 5441 5442 5443 5444 5445 5445 5445 5446 5446 5445 5444 5442 5441 5439 5437 5434 5432 5429 5426 5423 5419 5415 5411 5405 5400 5394 5388 5381 5375 5370 5365 5361 5357 5354 5351 5348 5346 5344 5341 5338 5335 5332 5330 5329 5327 5325 5322 5319 5316
5435 5436 5438 5439 5440 5441 5442 5443 5443 5443 5443 5443 5442 5441 5440 5438 5437 5435 5432 5430 5427 5424 5421 5417 5414 5410 5405 5400 5394 5387 5380 5372 5365 5358 5354 5351 5347 5345 5343 5341 5339 5337 5335 5332 5331 5329 5328 5327 5325 5322 5319 5316 5312 5308
5435 5436 5438 5438 5439 5440 5440 5441 5441 5440 5440 5439 5438 5436 5435 5433 5431 5428 5426 5423 5420 5417 5413 5409 5405 5400 5394 5388 5380 5372 5366 5358 5351 5344 5338 5334 5333 5332 5331 5330 5329 5328 5327 5327 5326 5325 5324 5322 5319 5315 5311 5307 5303 5299
5435 5436 5436 5437 5438 5438 5438 5438 5437 5436 5435 5434 5433 5431 5429 5426 5424 5421 5418 5415 5412 5408 5404 5399 5394 5388 5382 5375 5367 5359 5352 5345 5338 5332 5327 5324 5323 5323 5323 5323 5323 5323 5324 5323 5322 5321 5318 5315 5311 5307 5303 5299 5294 5289
5432 5433 5434 5434 5434 5434 5434 5433 5432 5431 5430 5428 5426 5424 5422 5419 5416 5413 5410 5407 5403 5398 5394 5389 5383 5375 5368 5361 5355 5350 5343 5337 5330 5325 5321 5319 5319 5319 5320 5320 5321 5321 5321 5319 5317 5315 5312 5308 5304 5300 5295 5290 5285 5280
5429 5430 5430 5430 5429 5429 5428 5427 5425 5424 5422 5421 5419 5416 5414 5411 5409 5405 5401 5397 5393 5389 5383 5378 5372 5366 5359 5352 5346 5342 5338 5335 5331 5327 5324 5322 5321 5321 5321 5321 5320 5319 5317 5315 5312 5309 5305 5301 5296 5292 5287 5281 5275 5269
5424 5425 5424 5424 5423 5423 5422 5421 5419 5417 5415 5413 5411 5409 5406 5403 5399 5396 5392 5388 5383 5378 5373 5367 5361 5355 5349 5344 5339 5335 5334 5332 5330 5328 5326 5324 5323 5322 5320 5319 5317 5315 5313 5309 5306 5302 5298 5294 5289 5284 5278 5272 5266 5259